| time (UTC) | temp F | wind direction | speed knots | gust knots | rain 1hr in | rain 24hr in | rain mn in | humidity % | barometer mb |
| 20260507042710 | 64 | 113 | 2.6 | 9.6 | 0.00 | 0.00 | 0.00 | 81 | 1009.1 |
| 20260507042209 | 65 | 90 | 5.2 | 9.6 | 0.00 | 0.00 | 0.00 | 81 | 1008.9 |
| 20260507041210 | 65 | 90 | 3.5 | 9.6 | 0.00 | 0.00 | 0.00 | 80 | 1009.2 |
| 20260507040709 | 65 | 45 | 4.3 | 9.6 | 0.00 | 0.00 | 0.00 | 80 | 1009.2 |
| 20260507040210 | 65 | 90 | 5.2 | 9.6 | 0.00 | 0.00 | 0.00 | 80 | 1009.0 |
| 20260507035709 | 65 | 68 | 7.0 | 7.8 | 0.00 | 0.00 | 0.00 | 80 | 1009.2 |
| 20260507035210 | 65 | 90 | 6.1 | 9.6 | 0.00 | 0.00 | 0.00 | 81 | 1009.3 |
| 20260507034710 | 65 | 68 | 5.2 | 9.6 | 0.00 | 0.00 | 0.00 | 81 | 1009.5 |
| 20260507034209 | 65 | 90 | 3.5 | 9.6 | 0.00 | 0.00 | 0.00 | 80 | 1009.3 |
| 20260507033710 | 65 | 68 | 3.5 | 9.6 | 0.00 | 0.00 | 0.00 | 80 | 1009.5 |
| 20260507033209 | 65 | 68 | 7.0 | 9.6 | 0.00 | 0.00 | 0.00 | 80 | 1009.1 |
| 20260507032710 | 65 | 68 | 6.1 | 9.6 | 0.00 | 0.00 | 0.00 | 80 | 1009.2 |
| 20260507032210 | 64 | 90 | 7.0 | 9.6 | 0.00 | 0.00 | 0.00 | 80 | 1008.9 |
| 20260507031209 | 65 | 90 | 5.2 | 7.8 | 0.00 | 0.00 | 0.00 | 80 | 1009.0 |
| 20260507030709 | 65 | 90 | 6.1 | 7.8 | 0.00 | 0.00 | 0.00 | 80 | 1009.1 |
| 20260507025709 | 65 | 90 | 3.5 | 9.6 | 0.00 | 0.00 | 0.00 | 80 | 1009.3 |
| 20260507025209 | 65 | 113 | 5.2 | 9.6 | 0.00 | 0.00 | 0.00 | 79 | 1009.3 |
| 20260507024710 | 65 | 68 | 6.1 | 9.6 | 0.00 | 0.00 | 0.00 | 79 | 1009.2 |
| 20260507024209 | 65 | 45 | 3.5 | 9.6 | 0.00 | 0.00 | 0.00 | 80 | 1009.5 |
| 20260507023709 | 65 | 68 | 5.2 | 9.6 | 0.00 | 0.00 | 0.00 | 80 | 1009.4 |
| 20260507023209 | 65 | 68 | 5.2 | 7.8 | 0.00 | 0.00 | 0.00 | 80 | 1009.5 |
| 20260507022709 | 65 | 45 | 5.2 | 7.0 | 0.00 | 0.00 | 0.00 | 80 | 1009.4 |
| 20260507021709 | 65 | 68 | 3.5 | 7.8 | 0.00 | 0.00 | 0.00 | 80 | 1009.8 |
| 20260507021209 | 65 | 68 | 3.5 | 9.6 | 0.00 | 0.00 | 0.00 | 80 | 1009.6 |
| 20260507020709 | 65 | 68 | 3.5 | 9.6 | 0.00 | 0.00 | 0.00 | 79 | 1009.7 |
| 20260507015210 | 65 | 68 | 4.3 | 0.0 | 0.00 | 0.00 | 0.00 | 80 | 1009.6 |
| 20260507011710 | 65 | 68 | 3.5 | 7.0 | 0.00 | 0.00 | 0.00 | 79 | 1010.3 |
| 20260507011210 | 65 | 68 | 3.5 | 7.0 | 0.00 | 0.00 | 0.00 | 79 | 1010.2 |
| 20260507010710 | 65 | 68 | 3.5 | 7.0 | 0.00 | 0.00 | 0.00 | 79 | 1010.2 |
| 20260507010210 | 65 | 68 | 3.5 | 7.0 | 0.00 | 0.00 | 0.00 | 78 | 1010.3 |
| 20260507005710 | 65 | 90 | 3.5 | 7.8 | 0.00 | 0.00 | 0.00 | 78 | 1010.4 |
| 20260507005209 | 65 | 68 | 3.5 | 7.8 | 0.00 | 0.00 | 0.00 | 79 | 1010.5 |
| 20260507004709 | 65 | 90 | 4.3 | 7.8 | 0.00 | 0.00 | 0.00 | 80 | 1010.2 |
| 20260507004209 | 65 | 45 | 3.5 | 7.8 | 0.00 | 0.00 | 0.00 | 80 | 1010.3 |
| 20260507003709 | 65 | 45 | 4.3 | 7.8 | 0.00 | 0.00 | 0.00 | 80 | 1010.2 |
| 20260507003209 | 65 | 68 | 4.3 | 7.8 | 0.00 | 0.00 | 0.00 | 80 | 1010.2 |
| 20260507002209 | 65 | 68 | 4.3 | 6.1 | 0.00 | 0.00 | 0.00 | 80 | 1009.9 |
| 20260507001209 | 64 | 68 | 3.5 | 5.2 | 0.00 | 0.00 | 0.00 | 81 | 1010.2 |
| 20260507000710 | 64 | 45 | 3.5 | 5.2 | 0.00 | 0.00 | 0.00 | 81 | 1010.2 |
| 20260506235710 | 64 | 45 | 1.7 | 3.5 | 0.00 | 0.00 | 0.00 | 81 | 1010.0 |
| 20260506235209 | 64 | 68 | 2.6 | 0.0 | 0.00 | 0.00 | 0.00 | 82 | 1010.2 |
| 20260506231209 | 60 | 270 | 0.0 | 0.0 | 0.00 | 0.00 | 0.00 | 82 | 1010.4 |
| 20260506230709 | 60 | 270 | 0.0 | 1.7 | 0.00 | 0.00 | 0.00 | 82 | 1010.4 |
| 20260506230210 | 60 | 270 | 0.0 | 1.7 | 0.00 | 0.00 | 0.00 | 82 | 1010.5 |
| 20260506225709 | 60 | 270 | 0.0 | 1.7 | 0.00 | 0.00 | 0.00 | 82 | 1010.7 |
| 20260506225209 | 62 | 180 | 0.0 | 1.7 | 0.00 | 0.00 | 0.00 | 81 | 1010.7 |
| 20260506224709 | 62 | 180 | 0.0 | 1.7 | 0.00 | 0.00 | 0.00 | 81 | 1010.5 |
| 20260506224209 | 62 | 180 | 0.9 | 1.7 | 0.00 | 0.00 | 0.00 | 81 | 1010.6 |
| 20260506223709 | 62 | 203 | 0.9 | 1.7 | 0.00 | 0.00 | 0.00 | 81 | 1010.5 |
| 20260506223210 | 62 | 180 | 0.9 | 1.7 | 0.00 | 0.00 | 0.00 | 81 | 1010.3 |
| 20260506222709 | 62 | 158 | 0.9 | 1.7 | 0.00 | 0.00 | 0.00 | 81 | 1010.6 |
| 20260506222209 | 63 | 135 | 0.0 | 1.7 | 0.00 | 0.00 | 0.00 | 81 | 1010.3 |
| 20260506221709 | 63 | 158 | 0.0 | 1.7 | 0.00 | 0.00 | 0.00 | 81 | 1010.4 |
| 20260506220709 | 63 | 158 | 0.0 | 1.7 | 0.00 | 0.00 | 0.00 | 80 | 1010.5 |
| 20260506220209 | 63 | 135 | 0.0 | 1.7 | 0.00 | 0.00 | 0.00 | 80 | 1010.3 |
| 20260506215709 | 63 | 113 | 0.9 | 1.7 | 0.00 | 0.00 | 0.00 | 80 | 1010.5 |
| 20260506215209 | 63 | 90 | 0.0 | 1.7 | 0.00 | 0.00 | 0.00 | 79 | 1010.6 |
| 20260506214709 | 63 | 113 | 0.9 | 1.7 | 0.00 | 0.00 | 0.00 | 79 | 1010.7 |
| 20260506214209 | 63 | 90 | 0.9 | 1.7 | 0.00 | 0.00 | 0.00 | 79 | 1010.7 |
| 20260506213709 | 63 | 113 | 0.0 | 1.7 | 0.00 | 0.00 | 0.00 | 79 | 1010.9 |
| 20260506212709 | 62 | 203 | 0.0 | 1.7 | 0.00 | 0.00 | 0.00 | 79 | 1011.0 |
| 20260506211709 | 63 | 225 | 0.9 | 1.7 | 0.00 | 0.00 | 0.00 | 79 | 1011.4 |
| 20260506211209 | 63 | 158 | 0.0 | 1.7 | 0.00 | 0.00 | 0.00 | 79 | 1011.1 |
| 20260506210710 | 63 | 158 | 0.0 | 1.7 | 0.00 | 0.00 | 0.00 | 78 | 1010.9 |
| 20260506205710 | 63 | 135 | 0.9 | 3.5 | 0.00 | 0.00 | 0.00 | 78 | 1010.9 |
| 20260506204710 | 63 | 113 | 0.0 | 1.7 | 0.00 | 0.00 | 0.00 | 78 | 1010.9 |
| 20260506204210 | 63 | 158 | 0.9 | 1.7 | 0.00 | 0.00 | 0.00 | 79 | 1010.8 |
| 20260506203710 | 63 | 158 | 0.0 | 1.7 | 0.00 | 0.00 | 0.00 | 79 | 1010.8 |
| 20260506203209 | 63 | 135 | 0.9 | 1.7 | 0.00 | 0.00 | 0.00 | 78 | 1010.8 |
| 20260506202709 | 63 | 135 | 0.9 | 3.5 | 0.00 | 0.00 | 0.00 | 78 | 1010.8 |
| 20260506201710 | 64 | 135 | 0.9 | 3.5 | 0.00 | 0.00 | 0.00 | 78 | 1010.8 |
| 20260506201210 | 64 | 135 | 1.7 | 3.5 | 0.00 | 0.00 | 0.00 | 78 | 1010.6 |
| 20260506200710 | 64 | 135 | 1.7 | 5.2 | 0.00 | 0.00 | 0.00 | 77 | 1010.7 |
| 20260506200209 | 64 | 90 | 0.0 | 5.2 | 0.00 | 0.00 | 0.00 | 77 | 1010.5 |
| 20260506195709 | 64 | 158 | 1.7 | 5.2 | 0.00 | 0.00 | 0.00 | 77 | 1010.2 |
| 20260506195209 | 64 | 113 | 1.7 | 3.5 | 0.00 | 0.00 | 0.00 | 78 | 1010.2 |
| 20260506194210 | 64 | 135 | 1.7 | 3.5 | 0.00 | 0.00 | 0.00 | 78 | 1010.2 |
| 20260506193710 | 64 | 90 | 1.7 | 6.1 | 0.00 | 0.00 | 0.00 | 77 | 1010.3 |
| 20260506193209 | 64 | 90 | 1.7 | 6.1 | 0.00 | 0.00 | 0.00 | 78 | 1010.1 |
| 20260506192210 | 64 | 135 | 0.9 | 5.2 | 0.00 | 0.00 | 0.00 | 77 | 1009.9 |
| 20260506191710 | 64 | 113 | 1.7 | 7.0 | 0.00 | 0.00 | 0.00 | 78 | 1009.7 |
| 20260506191210 | 64 | 135 | 1.7 | 7.0 | 0.00 | 0.00 | 0.00 | 77 | 1009.7 |
| 20260506190710 | 64 | 90 | 1.7 | 7.0 | 0.00 | 0.00 | 0.00 | 77 | 1009.8 |
| 20260506185710 | 64 | 90 | 1.7 | 7.8 | 0.00 | 0.00 | 0.00 | 77 | 1010.0 |
| 20260506185209 | 65 | 135 | 3.5 | 7.8 | 0.00 | 0.00 | 0.00 | 76 | 1009.9 |
| 20260506184709 | 65 | 90 | 1.7 | 7.8 | 0.00 | 0.00 | 0.00 | 76 | 1009.5 |
| 20260506184209 | 65 | 90 | 4.3 | 7.0 | 0.00 | 0.00 | 0.00 | 76 | 1009.8 |
| 20260506183709 | 65 | 113 | 2.6 | 9.6 | 0.00 | 0.00 | 0.00 | 76 | 1009.6 |
| 20260506183209 | 65 | 68 | 2.6 | 9.6 | 0.00 | 0.00 | 0.00 | 75 | 1009.5 |
| 20260506182709 | 65 | 113 | 1.7 | 9.6 | 0.00 | 0.00 | 0.00 | 75 | 1009.3 |
| 20260506181710 | 65 | 90 | 4.3 | 7.0 | 0.00 | 0.00 | 0.00 | 75 | 1009.4 |
| 20260506180210 | 66 | 113 | 2.6 | 9.6 | 0.00 | 0.00 | 0.00 | 75 | 1009.4 |
| 20260506175710 | 66 | 68 | 6.1 | 9.6 | 0.00 | 0.00 | 0.00 | 75 | 1009.4 |
| 20260506175210 | 66 | 113 | 2.6 | 7.8 | 0.00 | 0.00 | 0.00 | 75 | 1009.2 |
| 20260506174210 | 66 | 90 | 3.5 | 9.6 | 0.00 | 0.00 | 0.00 | 75 | 1009.3 |
| 20260506173709 | 66 | 135 | 4.3 | 9.6 | 0.00 | 0.00 | 0.00 | 75 | 1009.3 |
| 20260506173209 | 66 | 113 | 5.2 | 9.6 | 0.00 | 0.00 | 0.00 | 74 | 1009.4 |
| 20260506172709 | 66 | 90 | 4.3 | 9.6 | 0.00 | 0.00 | 0.00 | 74 | 1009.5 |
| 20260506171709 | 66 | 90 | 3.5 | 9.6 | 0.00 | 0.00 | 0.00 | 75 | 1009.2 |
| 20260506171210 | 66 | 90 | 3.5 | 9.6 | 0.00 | 0.00 | 0.00 | 75 | 1009.2 |
| 20260506170709 | 66 | 90 | 7.0 | 12.2 | 0.00 | 0.00 | 0.00 | 75 | 1009.2 |
| 20260506165709 | 66 | 113 | 6.1 | 12.2 | 0.00 | 0.00 | 0.00 | 75 | 1009.5 |
| 20260506165209 | 67 | 90 | 5.2 | 12.2 | 0.00 | 0.00 | 0.00 | 75 | 1009.4 |
| 20260506164709 | 67 | 90 | 7.0 | 12.2 | 0.00 | 0.00 | 0.00 | 75 | 1009.4 |
| 20260506164209 | 67 | 90 | 5.2 | 12.2 | 0.00 | 0.00 | 0.00 | 74 | 1009.3 |
| 20260506163709 | 66 | 90 | 7.0 | 12.2 | 0.00 | 0.00 | 0.00 | 74 | 1009.2 |
| 20260506163209 | 67 | 68 | 6.1 | 12.2 | 0.00 | 0.00 | 0.00 | 74 | 1009.3 |
| 20260506162210 | 67 | 68 | 7.0 | 12.2 | 0.00 | 0.00 | 0.00 | 73 | 1009.5 |
| 20260506161709 | 67 | 90 | 7.0 | 12.2 | 0.00 | 0.00 | 0.00 | 74 | 1009.3 |
| 20260506160710 | 67 | 68 | 7.0 | 13.0 | 0.00 | 0.00 | 0.00 | 73 | 1009.3 |
| 20260506160209 | 67 | 90 | 7.0 | 13.0 | 0.00 | 0.00 | 0.00 | 73 | 1009.3 |
| 20260506155709 | 67 | 135 | 7.0 | 13.0 | 0.00 | 0.00 | 0.00 | 74 | 1009.4 |
| 20260506155209 | 67 | 90 | 7.0 | 13.0 | 0.00 | 0.00 | 0.00 | 74 | 1009.6 |
| 20260506154709 | 67 | 90 | 7.8 | 13.0 | 0.00 | 0.00 | 0.00 | 75 | 1009.4 |
| 20260506154209 | 67 | 113 | 8.7 | 12.2 | 0.00 | 0.00 | 0.00 | 75 | 1009.4 |
| 20260506153709 | 67 | 68 | 6.1 | 12.2 | 0.00 | 0.00 | 0.00 | 75 | 1009.5 |
| 20260506153210 | 67 | 68 | 7.0 | 12.2 | 0.00 | 0.00 | 0.00 | 75 | 1009.5 |
| 20260506152710 | 67 | 90 | 7.0 | 12.2 | 0.00 | 0.00 | 0.00 | 74 | 1009.4 |
| 20260506152210 | 68 | 113 | 7.0 | 12.2 | 0.00 | 0.00 | 0.00 | 75 | 1009.6 |
| 20260506151710 | 67 | 90 | 6.1 | 13.0 | 0.00 | 0.00 | 0.00 | 74 | 1009.4 |
| 20260506151209 | 68 | 90 | 7.0 | 13.0 | 0.00 | 0.00 | 0.00 | 74 | 1009.4 |
| 20260506150209 | 68 | 90 | 7.8 | 13.9 | 0.00 | 0.00 | 0.00 | 73 | 1009.4 |
| 20260506145710 | 67 | 90 | 9.6 | 13.9 | 0.00 | 0.00 | 0.00 | 73 | 1009.4 |
| 20260506145210 | 68 | 68 | 7.0 | 13.0 | 0.00 | 0.00 | 0.00 | 72 | 1009.4 |
| 20260506144710 | 68 | 90 | 7.8 | 13.0 | 0.00 | 0.00 | 0.00 | 71 | 1009.2 |
| 20260506144210 | 68 | 90 | 7.0 | 13.0 | 0.00 | 0.00 | 0.00 | 72 | 1009.2 |
| 20260506143710 | 68 | 113 | 9.6 | 13.0 | 0.00 | 0.00 | 0.00 | 73 | 1009.2 |
| 20260506143209 | 68 | 45 | 8.7 | 13.0 | 0.00 | 0.00 | 0.00 | 73 | 1009.3 |
| 20260506142709 | 69 | 68 | 6.1 | 13.0 | 0.00 | 0.00 | 0.00 | 71 | 1009.4 |
| 20260506142209 | 69 | 90 | 7.8 | 13.0 | 0.00 | 0.00 | 0.00 | 72 | 1009.4 |
| 20260506141210 | 69 | 90 | 7.0 | 13.0 | 0.00 | 0.00 | 0.00 | 72 | 1009.5 |
| 20260506140710 | 69 | 90 | 7.0 | 13.0 | 0.00 | 0.00 | 0.00 | 70 | 1009.4 |
| 20260506140209 | 70 | 68 | 6.1 | 13.0 | 0.00 | 0.00 | 0.00 | 71 | 1009.4 |
| 20260506135709 | 69 | 68 | 7.0 | 13.0 | 0.00 | 0.00 | 0.00 | 71 | 1009.8 |
| 20260506135209 | 69 | 68 | 7.0 | 12.2 | 0.00 | 0.00 | 0.00 | 70 | 1009.5 |
| 20260506134709 | 69 | 113 | 7.8 | 12.2 | 0.00 | 0.00 | 0.00 | 72 | 1009.7 |
| 20260506134209 | 69 | 68 | 7.0 | 12.2 | 0.00 | 0.00 | 0.00 | 72 | 1009.6 |
| 20260506133709 | 69 | 68 | 7.0 | 12.2 | 0.00 | 0.00 | 0.00 | 71 | 1009.6 |
| 20260506132710 | 69 | 90 | 7.8 | 11.3 | 0.00 | 0.00 | 0.00 | 71 | 1009.8 |
| 20260506132210 | 70 | 113 | 6.1 | 11.3 | 0.00 | 0.00 | 0.00 | 70 | 1010.0 |
| 20260506131710 | 70 | 90 | 7.0 | 11.3 | 0.00 | 0.00 | 0.00 | 68 | 1009.8 |
| 20260506131210 | 70 | 68 | 7.0 | 12.2 | 0.00 | 0.00 | 0.00 | 69 | 1009.9 |
| 20260506130710 | 69 | 90 | 7.0 | 12.2 | 0.00 | 0.00 | 0.00 | 69 | 1009.8 |
| 20260506130210 | 69 | 45 | 7.0 | 11.3 | 0.00 | 0.00 | 0.00 | 70 | 1010.0 |
| 20260506125710 | 70 | 23 | 6.1 | 11.3 | 0.00 | 0.00 | 0.00 | 70 | 1010.1 |
| 20260506125210 | 70 | 68 | 7.0 | 13.0 | 0.00 | 0.00 | 0.00 | 69 | 1009.9 |
| 20260506124710 | 70 | 68 | 6.1 | 13.0 | 0.00 | 0.00 | 0.00 | 69 | 1010.1 |
| 20260506123210 | 69 | 68 | 7.8 | 11.3 | 0.00 | 0.00 | 0.00 | 72 | 1010.1 |
| 20260506122709 | 70 | 45 | 7.0 | 12.2 | 0.00 | 0.00 | 0.00 | 71 | 1009.9 |
| 20260506122209 | 70 | 113 | 7.0 | 12.2 | 0.00 | 0.00 | 0.00 | 71 | 1010.1 |
| 20260506121709 | 69 | 68 | 6.1 | 12.2 | 0.00 | 0.00 | 0.00 | 71 | 1010.2 |
| 20260506121209 | 70 | 68 | 7.0 | 12.2 | 0.00 | 0.00 | 0.00 | 70 | 1010.4 |
| 20260506120709 | 69 | 113 | 7.0 | 12.2 | 0.00 | 0.00 | 0.00 | 71 | 1010.5 |
| 20260506120209 | 70 | 90 | 5.2 | 11.3 | 0.00 | 0.00 | 0.00 | 72 | 1010.4 |
| 20260506115209 | 70 | 113 | 7.0 | 13.0 | 0.00 | 0.00 | 0.00 | 72 | 1010.4 |
| 20260506114209 | 69 | 68 | 6.1 | 11.3 | 0.00 | 0.00 | 0.00 | 74 | 1010.5 |
| 20260506113709 | 68 | 68 | 7.0 | 11.3 | 0.00 | 0.00 | 0.00 | 75 | 1010.4 |
| 20260506113209 | 69 | 68 | 7.0 | 11.3 | 0.00 | 0.00 | 0.00 | 73 | 1010.4 |
| 20260506112709 | 71 | 45 | 6.1 | 11.3 | 0.00 | 0.00 | 0.00 | 70 | 1010.5 |
| 20260506112209 | 71 | 45 | 5.2 | 11.3 | 0.00 | 0.00 | 0.00 | 70 | 1010.5 |
| 20260506111710 | 70 | 45 | 5.2 | 11.3 | 0.00 | 0.00 | 0.00 | 70 | 1010.5 |
| 20260506110709 | 71 | 68 | 4.3 | 13.9 | 0.00 | 0.00 | 0.00 | 72 | 1010.3 |
| 20260506110210 | 70 | 90 | 5.2 | 13.9 | 0.00 | 0.00 | 0.00 | 73 | 1010.5 |
| 20260506105710 | 70 | 68 | 7.0 | 12.2 | 0.00 | 0.00 | 0.00 | 72 | 1010.3 |
| 20260506105210 | 70 | 90 | 7.8 | 13.0 | 0.00 | 0.00 | 0.00 | 73 | 1010.4 |
| 20260506104710 | 70 | 68 | 6.1 | 13.0 | 0.00 | 0.00 | 0.00 | 74 | 1010.6 |
| 20260506104209 | 70 | 68 | 7.8 | 13.9 | 0.00 | 0.00 | 0.00 | 73 | 1010.6 |
| 20260506103709 | 70 | 68 | 7.8 | 13.9 | 0.00 | 0.00 | 0.00 | 74 | 1010.6 |
| 20260506103210 | 69 | 90 | 8.7 | 14.8 | 0.00 | 0.00 | 0.00 | 75 | 1010.6 |
| 20260506102710 | 70 | 68 | 7.8 | 14.8 | 0.00 | 0.00 | 0.00 | 76 | 1010.4 |
| 20260506102210 | 70 | 68 | 7.0 | 14.8 | 0.00 | 0.00 | 0.00 | 76 | 1010.6 |
| 20260506101710 | 69 | 45 | 9.6 | 14.8 | 0.00 | 0.00 | 0.00 | 76 | 1010.4 |
| 20260506100710 | 69 | 23 | 7.0 | 15.6 | 0.00 | 0.00 | 0.00 | 77 | 1010.3 |
| 20260506095710 | 68 | 45 | 7.8 | 15.6 | 0.00 | 0.00 | 0.00 | 77 | 1010.6 |
| 20260506095210 | 67 | 68 | 8.7 | 13.9 | 0.00 | 0.00 | 0.00 | 77 | 1010.5 |
| 20260506093710 | 68 | 45 | 7.0 | 13.9 | 0.00 | 0.00 | 0.00 | 76 | 1010.6 |
| 20260506092709 | 68 | 45 | 7.8 | 13.9 | 0.00 | 0.00 | 0.00 | 75 | 1010.5 |
| 20260506092209 | 68 | 45 | 7.8 | 13.9 | 0.00 | 0.00 | 0.00 | 74 | 1010.5 |
| 20260506091709 | 69 | 68 | 7.0 | 13.9 | 0.00 | 0.00 | 0.00 | 74 | 1010.3 |
| 20260506091209 | 68 | 68 | 7.8 | 13.0 | 0.00 | 0.00 | 0.00 | 74 | 1010.2 |
| 20260506090709 | 69 | 45 | 7.0 | 13.0 | 0.00 | 0.00 | 0.00 | 75 | 1010.2 |
| 20260506090210 | 69 | 68 | 7.0 | 13.0 | 0.00 | 0.00 | 0.00 | 75 | 1010.0 |
| 20260506085709 | 69 | 68 | 6.1 | 13.0 | 0.00 | 0.00 | 0.00 | 76 | 1010.0 |
| 20260506085210 | 68 | 45 | 9.6 | 13.0 | 0.00 | 0.00 | 0.00 | 76 | 1009.9 |
| 20260506084710 | 68 | 23 | 7.8 | 13.0 | 0.00 | 0.00 | 0.00 | 77 | 1010.0 |
| 20260506084210 | 68 | 45 | 8.7 | 13.0 | 0.00 | 0.00 | 0.00 | 78 | 1009.9 |
| 20260506083710 | 67 | 45 | 9.6 | 12.2 | 0.00 | 0.00 | 0.00 | 77 | 1010.0 |
| 20260506082710 | 69 | 68 | 7.0 | 12.2 | 0.00 | 0.00 | 0.00 | 76 | 1010.0 |
| 20260506081710 | 67 | 45 | 7.0 | 12.2 | 0.00 | 0.00 | 0.00 | 77 | 1010.1 |
| 20260506081210 | 69 | 23 | 6.1 | 9.6 | 0.00 | 0.00 | 0.00 | 76 | 1009.8 |
| 20260506080710 | 68 | 45 | 5.2 | 9.6 | 0.00 | 0.00 | 0.00 | 75 | 1010.0 |
| 20260506080209 | 69 | 45 | 7.0 | 9.6 | 0.00 | 0.00 | 0.00 | 74 | 1009.8 |
| 20260506072709 | 68 | 68 | 5.2 | 9.6 | 0.00 | 0.00 | 0.00 | 75 | 1010.1 |
| 20260506072209 | 68 | 68 | 4.3 | 9.6 | 0.00 | 0.00 | 0.00 | 74 | 1010.1 |
| 20260506071709 | 68 | 68 | 4.3 | 9.6 | 0.00 | 0.00 | 0.00 | 75 | 1010.1 |
| 20260506071209 | 67 | 90 | 3.5 | 9.6 | 0.00 | 0.00 | 0.00 | 76 | 1010.0 |
| 20260506070709 | 67 | 68 | 7.0 | 9.6 | 0.00 | 0.00 | 0.00 | 76 | 1010.2 |
| 20260506070210 | 67 | 68 | 3.5 | 9.6 | 0.00 | 0.00 | 0.00 | 76 | 1010.1 |
| 20260506062210 | 66 | 68 | 6.1 | 11.3 | 0.00 | 0.00 | 0.00 | 79 | 1009.8 |
| 20260506061710 | 66 | 45 | 7.0 | 9.6 | 0.00 | 0.00 | 0.00 | 79 | 1009.9 |
| 20260506060710 | 65 | 45 | 6.1 | 11.3 | 0.00 | 0.00 | 0.00 | 79 | 1009.9 |
| 20260506060209 | 65 | 45 | 4.3 | 11.3 | 0.00 | 0.00 | 0.00 | 80 | 1009.9 |
| 20260506050710 | 64 | 45 | 7.0 | 9.6 | 0.00 | 0.00 | 0.00 | 86 | 1009.3 |
| 20260506050210 | 64 | 45 | 6.1 | 9.6 | 0.00 | 0.00 | 0.00 | 86 | 1009.2 |
| 20260506044709 | 63 | 45 | 4.3 | 1.7 | 0.00 | 0.00 | 0.00 | 88 | 1008.6 |
| 20260506044210 | 57 | 225 | 0.0 | 1.7 | 0.00 | 0.00 | 0.00 | 87 | 1008.8 |
| 20260506043710 | 58 | 158 | 0.0 | 1.7 | 0.00 | 0.00 | 0.00 | 87 | 1008.8 |
| 20260506043209 | 57 | 225 | 0.0 | 3.5 | 0.00 | 0.00 | 0.00 | 87 | 1008.9 |